User: anonymous   Login
Location: Chicago
(41.7813°N, 87.6051°W)
Time: 05:33:14
(UTC-05:00)
Language:

ISS - Orbit

View from above orbital plane
View from above orbital plane
View from above satellite
View from above satellite

Ground track
Ground track

The orbit data is extracted from the following two-line orbital elements,

1 25544U 98067A   17175.55948959  .00016717  00000-0  10270-3 0  9013
2 25544  51.6383   1.5856 0005006 314.8881  45.1864 15.54092457 22898
Epoch (UTC): 24 June 2017 13:25:39
Eccentricity: 0.0005006
inclination: 51.6383°
perigee height: 401 km
apogee height: 408 km
right ascension of ascending node: 1.5856°
argument of perigee: 314.8881°
revolutions per day: 15.54092457
mean anomaly at epoch: 45.1864°
orbit number at epoch: 2289

The dashed part of the orbit path shows where the satellite is in the earth's shadow,  

DLR